Golden, OK (74737)

4:31 AM CST on February 13, 2016 (GMT -0600)
Idabel | | Change Station
CLOSE
Current Station
Airport
Location: Idabel,
Elevation: 472 ft
Nearby Weather Stations

Elev 472 ft 33.91 °N, 94.85 °W | Updated 16 minutes ago

Clear
Clear
34 °F
Feels Like 34 °F
N
0
Wind Variable Wind from North

Today
High -- | Low -- °F
--% Chance of Precip.
Yesterday
High -- | Low -- °F
Precip. -- in
Pressure 30.41 in
Visibility 10.0 miles
Clouds Clear
Dew Point 30 °F
Humidity 87%
Rainfall 0.00 in
Snow Depth Not available.
7:06 AM 6:01 PM
Waxing Crescent, 29% visible
METAR K4O4 131015Z AUTO 00000KT 10SM CLR 01/M01 A3041 RMK AO2
Pressure 30.41 in
Visibility 10.0 miles
Clouds Clear
Dew Point 30 °F
Humidity 87%
Rainfall 0.00 in
Snow Depth Not available.
7:06 AM 6:01 PM
Waxing Crescent, 29% visible
METAR K4O4 131015Z AUTO 00000KT 10SM CLR 01/M01 A3041 RMK AO2

10-Day Weather Forecast

Almanac

Astronomy

Feb. 13, 2016 Rise Set
Actual Time
Civil Twilight
Nautical Twilight
Astronomical Twilight
Moon
Length of Visible Light
Length of Day
Tomorrow will be .
, % of the Moon is Illuminated

Today's Extremes

State Highs State Lows

Community

WunderPhotos

Upload Photos

1,892,537 photos uploaded!

WunderBlog® & News

Nearby

Air Quality

  Air Quality AQ Index Pollutant
Not available.

Snow Depth

Station Depth Elevation

Earthquake Activity

City Distance Mag. Time & Date
Minimum magnitude displayed is 2.5.

Coastal Water Temperatures

Place Temperature

Stations

Nearby Weather Stations

Station Location Temp. Windchill Dew Point Humidity Wind Precip. Elev Updated Type
                   

Watches & Warnings

There are currently no watches in effect.